Regional Weather Roundup
Issued by NWS Pendleton, OR

Home | Current Version | Previous Version | Text Only | Print | Product List | Glossary On
Versions: 1 2 3 4 5 6 7 8 9 10 11 12 13 14 15 16 17 18 19 20 21 22 23 24 25 26 27 28 29 30 31 32 33 34 35 36 37 38 39 40 41 42 43 44 45 46 47 48 49 50
000
ASUS46 KPDT 291310
RWRPDT
PENDLETON REGIONAL WEATHER ROUNDUP
NATIONAL WEATHER SERVICE PENDLETON OREGON
600 AM PDT FRI AUG 29 2014

NOTE: FAIR INDICATES FEW OR NO CLOUDS BELOW 12,000 FEET WITH NO
SIGNIFICANT WEATHER AND/OR OBSTRUCTIONS TO VISIBILITY.

# INDICATES UNOFFICIAL STATION AND DATA

WAZ520-291410-
EAST SLOPES OF WASHINGTON CASCADES

CITY            SKY/WX      TMP DP  RH  WIND    PRES   REMARKS
#CLE ELUM HS    N/A         53  49  86  NW1     29.91F
#CLE ELUM 2NW   N/A         52  48  86  W1      N/A
#CLE ELUM LAKE  N/A         54  49  83  NE1     29.85F
#CLIFFDEL 2NW   N/A         51  48  89  N1      N/A
#EASTON DOT     N/A         55  51  86  CALM    N/A
#GLENWOOD       N/A         44  43  96  CALM    29.92S
#NELSON         N/A         52  49  89  CALM    29.89S
#NELSON 3SW     N/A         50  46  86  CALM    30.06S
#NILE           N/A         50  48  93  CALM    29.18S
#PEOH POINT     N/A         51  50  96  SW7     N/A
#RONALD 2NW     N/A         54  48  80  N3      29.85F
#TEANAWAY 4NE   N/A         50  48  93  CALM    N/A
#TROUT LAKE 1NE N/A         49  46  89  CALM    29.90S
$$

WAZ521-291410-
SIMCOE HIGHLANDS

CITY            SKY/WX      TMP DP  RH  WIND    PRES   REMARKS
#BICKLETON HS   N/A         54  42  64  W1      30.03S
#SATUS PASS DOT N/A         49  44  83  CALM    N/A
#CENTERVILLE 1SWN/A         55  48  77  N5      29.87S
#GOLDENDALE     N/A         53  48  83  E1      N/A
#GOLDENDALE 1NE N/A         51  45  80  N3      N/A
#GOLDENDALE 1S  N/A         51  47  86  CALM    29.94S
#GOLDENDALE 5WNWN/A         54  48  80  CALM    29.88S
#GOODNOE HILLS  N/A         61  55  81  W8      29.88S
#LYLE 6NE       N/A         58  56  93  S1      29.87S
$$

WAZ026-291410-
KITTITAS VALLEY

CITY            SKY/WX      TMP DP  RH  WIND    PRES   REMARKS
ELLENSBURG AP   CLEAR       58  50  75  CALM    29.94F
#ELLENSBURG CWU N/A         56  51  83  CALM    29.84S
#ELLENSBURG 3NE N/A         54  50  86  E1      29.94F
#ELLENSBURG     N/A         56  55  96  CALM    N/A
#ELLENSBURG 1E  N/A         52  47  83  CALM    N/A
#KITTITAS 3S    N/A         49  46  89  CALM    29.85F
#THORP 6N       N/A         53  48  83  N7      29.88S
$$

WAZ027-291410-
YAKIMA VALLEY

CITY            SKY/WX      TMP DP  RH  WIND    PRES   REMARKS
SUNNYSIDE AP    PTCLDY      52  48  86  CALM    29.91S
YAKIMA AIRPORT  CLEAR       53  47  80  W8      29.93F
YAKIMA-VAGABOND CLEAR       56  48  74  E2      29.94F
#COWICHE 1N     N/A         60  50  69  N3      30.10F
#GRANDVIEW      N/A         56  50  80  CALM    29.89S
#MABTON         N/A         56  48  74  CALM    29.90F
#MOXEE 2E       N/A         56  48  74  CALM    29.91S
#NACHES 2SW     N/A         60  52  75  W7      29.95F
#TERRACE HTS    N/A         57  49  75  CALM    29.83S
#TOPPENISH      N/A         59  52  78  CALM    29.80S
#WEST VALLEY    N/A         55  49  80  CALM    29.86S
#W YAKIMA       N/A         61  52  72  CALM    29.86F
#WHITE SWAN 5E  N/A         54  50  86  NW1     29.88F
#WILEY CITY 3W  N/A         53  48  83  CALM    29.94S
$$

WAZ028-291410-
LOWER COLUMBIA BASIN...WASHINGTON

CITY            SKY/WX      TMP DP  RH  WIND    PRES   REMARKS
HANFORD         MOCLEAR     64  47  54  SW5     29.88S
PASCO           PTCLDY      59  54  83  E5      29.90F
PROSSER AWOS    N/A         54  50  86  N1      29.94S
RICHLAND AWOS   PTCLDY      63  52  67  CALM    29.90F
#BASIN CITY 5SW N/A         64  52  65  CALM    29.90F
#BENTON CITY    N/A         58  52  80  CALM    29.78S
#CONNELL 5N     N/A         52  45  77  CALM    29.85S
#CONNELL 5NW    N/A         55  48  77  CALM    29.84F
#ELTOPIA        N/A         56  50  80  CALM    29.85S
#ELTOPIA 6NW    N/A         61  52  72  S1      28.88S
#KENNEWICK 3S   N/A         65  55  70  S1      29.86F
#PATERSON       N/A         60  54  81  E2      29.87F
#PROSSER DOT    N/A         57  53  86  CALM    N/A
#PROSSER        N/A         62  48  60  CALM    29.86F
#SAGEMOOR 2W    N/A         61  53  75  CALM    29.73S
#TOUCHET 2S     N/A         65  48  54  CALM    29.87S
#WEST PASCO     N/A         61  52  72  CALM    29.88S
$$

WAZ029-291410-
FOOTHILLS OF THE BLUES...WASHINGTON

CITY            SKY/WX      TMP DP  RH  WIND    PRES   REMARKS
WALLA WALLA AP  MOCLDY      66  46  48  SE5     29.95S
#COLLEGE PLACE  N/A         64  45  50  SE1     29.92S
#DAYTON SCHOOL  N/A         58  43  57  CALM    29.94S
#LOWDEN 2SE     N/A         58  49  72  E1      29.88S
#PLEASANT VIEW 1N/A         60  47  62  S9      29.89F
#PRESCOTT       N/A         50  45  83  CALM    29.89R
#SUDBURY        N/A         54  N/A N/A CALM    N/A
#WHITMAN COLLEGEN/A         66  47  50  SE1     29.93S
#WAITSBURG 8N   N/A         60  36  41  S3      29.88S
#WALLA WALLA 5E N/A         71  40  32  SW6     N/A
#WALLA WALLA U  N/A         65  48  54  CALM    29.88S
#WHITMAN MISSIONN/A         59  50  72  CALM    29.90S
$$

WAZ030-291410-
BLUE MOUNTAINS...WASHINGTON

CITY            SKY/WX      TMP DP  RH  WIND    PRES   REMARKS
$$

ORZ009-041-WAZ024-291410-
COLUMBIA RIVER GORGE

CITY            SKY/WX      TMP DP  RH  WIND    PRES   REMARKS
HOOD RIVER AP   CLEAR       54  48  80  S5      29.96S
THE DALLES AP   CLEAR       59  48  67  SE5     29.93S
#ARLINGTON AIRPON/A         62  54  75  W3      N/A
#ARLINGTON HS   N/A         64  54  70  W5      29.80S
#MARYHILL       N/A         64  52  65  CALM    N/A
#MARYHILL 2W    N/A         62  55  78  CALM    N/A
#MOSIER 1S      N/A         60  50  69  CALM    29.97S
#MURDOCK        N/A         66  61  84  W12     29.94R
#RUFUS DOT      N/A         N/A N/A N/A E1      N/A

$$

ORZ510-291410-
NORTH CENTRAL OREGON

CITY            SKY/WX      TMP DP  RH  WIND    PRES   REMARKS
#CHENOWITH 1W   N/A         59  53  80  W14     N/A
#COW CYN RST AREN/A         59  47  64  E2      N/A
#DUFUR 9E       N/A         64  48  56  SW3     29.92S
#GRASS VALLEY   N/A         51  43  74  SE1     N/A
#GRASS VALLEY 1SN/A         55  43  64  CALM    29.92S
#KENT DOT       N/A         56  44  64  SW2     N/A
#MAUPIN SCHOOL  N/A         55  43  64  CALM    28.85S
#MORO SCHOOL    N/A         54  49  83  CALM    29.98S
#SHANIKO 5WSW   N/A         58  43  57  S5      N/A
#SHANIKO 4NW    N/A         58  46  64  CALM    30.04S
#TYGH VALLEY 2NEN/A         51  41  68  CALM    29.91F
#WAPANITIA AIRPON/A         51  48  89  CALM    29.90F
#WASCO DOT      N/A         55  49  80  E2      N/A
#WASCO 5NE      N/A         58  49  72  CALM    29.89S
$$

ORZ511-291410-
CENTRAL OREGON

CITY            SKY/WX      TMP DP  RH  WIND    PRES   REMARKS
BEND AIRPORT    CLEAR       50  45  83  S5      30.05F
MADRAS AIRPORT  CLEAR       50  45  83  SE6     30.02F
REDMOND AIRPORT CLEAR       44  39  82  CALM    30.02F
#BEND 6E        N/A         51  43  74  CALM    29.84R
#BEND 1SW       N/A         53  46  77  NW1     N/A
#BEND-AWBREY    N/A         56  41  57  NW2     29.86F
#BEND-KIM LN    N/A         56  48  74  SW3     30.01F
#CULVER         N/A         53  47  80  CALM    29.98F
#LAKE BILLY CHINN/A         53  38  57  CALM    30.07S
#POWELL BUTTE   N/A         52  42  69  S2      29.67F
#PRINEVILLE 3N  N/A         49  42  77  CALM    29.85F
#WARM SPRINGS   N/A         55  46  72  CALM    29.97F


ORZ509-291410-
EAST SLOPES OF OREGON CASCADES

CITY            SKY/WX      TMP DP  RH  WIND    PRES   REMARKS
#BLUE BOX PASS  N/A         57   4  11  W2      N/A
#BLACK BUTTE RNCN/A         47  43  86  CALM    29.88F
#CAMP SHERMAN   N/A         44  40  86  CALM    29.93S
#LA PINE DOT    N/A         40  38  92  CALM    N/A
#LA PINE 4NW    N/A         38  34  85  CALM    29.96S
#LAVA BUTTE DOT N/A         51  45  80  CALM    N/A
#SISTERS AIRPOR N/A         42  41  96  CALM    30.01F
#SISTERS ODOT   N/A         42  N/A N/A CALM    N/A
#SISTERS 3N     N/A         42  36  79  CALM    N/A
#SUNRIVER       N/A         46  43  89  S1      29.79F
#SUNRIVER AP    N/A         41  39  93  CALM    29.87S
#SUTTLE LK DOT  N/A         49  46  89  W23G31  N/A    WCI 42
#TUMALO 3W      N/A         59  45  60  SW3     29.76F
#WANOGA BUTTE D N/A         56  N/A N/A CALM    N/A

$$

ORZ044-291410-
LOWER COLUMBIA BASIN...OREGON

CITY            SKY/WX      TMP DP  RH  WIND    PRES   REMARKS
HERMISTON       PTCLDY      59  49  69  S7      29.92S
#BOARDMAN SCHOOLN/A         62  50  65  CALM    29.90F
#BOARDMAN 3W    N/A         60  51  72  S2      29.62S
#BOARDMAN 8SW   N/A         59  49  69  SW7     29.88S
#ECHO 8SW       N/A         62  46  56  S3      29.90S
#IONE SCHOOL    N/A         58  44  60  CALM    29.93F
#IRRIGON 4NW    N/A         60  54  81  E2      N/A
#UMATILLA SCHOOLN/A         57  56  96  CALM    29.97S
#UMATILLA       N/A         61  49  65  SE3     29.89F
$$

ORZ507-291410-
NORTHERN FOOTHILLS OF THE BLUES

CITY            SKY/WX      TMP DP  RH  WIND    PRES   REMARKS
PENDLETON AIRPT PTCLDY      58  39  49  SE8     29.95F
#ADAMS 3WNW     N/A         48  35  60  CALM    29.89F
#ATHENA         N/A         60  43  53  CALM    29.91S
#HELIX SCHOOL   N/A         51  40  66  CALM    29.88F
#HELIX 3N       N/A         59  41  51  N10     29.93S
#HELIX 6SW      N/A         54  39  57  CALM    29.96S
#HOLDMAN 5SE    N/A         56  42  59  S2      29.96S
#HOLDMAN 6E     N/A         57  42  57  NW3     29.70S
#M-F GROVE ELEM N/A         61  45  56  CALM    29.93S
#M-FREEWATER 5SEN/A         60  47  62  CALM    29.95S
#PENDLETON DNTN N/A         54  32  43  CALM    29.92S
#PDT AQUATIC CTRN/A         55  36  49  CALM    29.96F
#PDT SUNRIDGE   N/A         50  40  68  CALM    29.97S
#PENDLETON 7NW  N/A         54  40  59  CALM    30.19S
#PILOT ROCK     N/A         59  37  44  CALM    29.99S
#TUTUILLA       N/A         57  46  67  CALM    29.85S
#UMAPINE 2E     N/A         60  49  67  CALM    29.90S
#WESTON SCHOOL  N/A         63  41  44  W5      29.92S

$$

ORZ508-291410-
SOUTHERN FOOTHILLS OF THE BLUES

CITY            SKY/WX      TMP DP  RH  WIND    PRES   REMARKS
LEXINGTON       CLEAR       59  45  60  E13     29.98S
#AJAX           N/A         62  42  48  S1      29.92F
#CONDON SCHOOL  N/A         55  40  57  CALM    29.98S
#CONDON 5W      N/A         60  44  55  NW2     30.00S
#FOSSIL SCHOOL  N/A         49  38  66  CALM    29.99F
#HEPPNER EOC    N/A         55  44  66  E7      29.85S
#HEPPNER 4NE    N/A         59  43  55  S1      29.87F
#LEXINGTON 2SE  N/A         57  45  64  SE6     29.95S
#MIKKALO        N/A         61  45  56  W1      29.96F
#OLEX 4N        N/A         59  46  62  SW3     29.92F
#RUGGS 5NE      N/A         53  42  66  CALM    30.17S
#RUGGS 2SW      N/A         57  39  51  SW7     29.93S

$$

ORZ502-503-291410-
BLUE MOUNTAINS

CITY            SKY/WX      TMP DP  RH  WIND    PRES   REMARKS
MEACHAM         PTCLDY      37  33  85  CALM    30.05S
#BATTLE MTN DOT N/A         49  41  74  S6      N/A
#HARDMAN 10S    N/A         50  37  61  CALM    30.11S
#HEPPNER 15SE   N/A         48  38  68  CALM    29.98S
#LADD CYN SMT   N/A         47  31  53  CALM    N/A
#LADD CREEK ODOTN/A         50  35  56  S3      N/A
#LONG CREEK HS  N/A         50  40  68  CALM    N/A
#N POWDER DOT   N/A         42  39  89  CALM    N/A
#PIKES PEAK     N/A         62  47  58  SW16    27.99S
#TOLLGATE       N/A         51  45  80  CALM    30.01S
#UKIAH          N/A         37  35  92  CALM    30.00R
#WESTON 4E      N/A         58  44  60  SE6     29.81S
$$

ORZ505-291410-
JOHN DAY BASIN

CITY            SKY/WX      TMP DP  RH  WIND    PRES   REMARKS
JOHN DAY        CLEAR       55  37  51  E7      30.07S
#JOHN DAY KJDY  N/A         51  43  74  CALM    30.20R
#MONUMENT HS    N/A         48  36  63  CALM    30.02S
#MT. VERNON 5SE N/A         54  37  52  CALM    30.03S
#WINLOCK        N/A         53  39  59  CALM    30.11S
$$

ORZ506-291410-
OCHOCO AND JOHN DAY HIGHLANDS

CITY            SKY/WX      TMP DP  RH  WIND    PRES   REMARKS
#BUCK CREEK DOT N/A         56  46  69  NE5     N/A
#HORSE RIDGE DO N/A         32  26  78  SW2     N/A
#KEYES SMT DOT  N/A         48  36  63  SE1     N/A
#PAULINA SCHOOL N/A         N/A N/A N/A CALM    30.05F
#PINE MTN OBS   N/A         60  23  24  CALM    N/A
#PRAIRIE CITY   N/A         41  36  82  CALM    30.15
#SENECA 9NW     N/A         38  31  76  CALM    29.89S
$$

ORZ049-291410-
GRANDE RONDE VALLEY

CITY            SKY/WX      TMP DP  RH  WIND    PRES   REMARKS
LA GRANDE       PTCLDY      45  27  49  CALM    30.02S
#COVE           N/A         48  39  71  CALM    29.94S
#COVE SCHOOL    N/A         47  37  68  CALM    30.01R
#COVE 6NW       N/A         42  35  76  CALM    29.96R
#ELGIN 3N       N/A         42  32  67  CALM    29.76S
#ELGIN 1E       N/A         43  36  76  CALM    N/A
#IMBLER SCHOOL  N/A         45  36  70  CALM    29.99R
#ISLAND CITY 4N N/A         47  37  68  CALM    29.87R
#LADD CYN DOT   N/A         55  34  45  SE7     N/A
#LA GRANDE ELEM N/A         53  37  54  CALM    30.01R
#UNION 1S       N/A         47  39  74  CALM    29.82R
$$

ORZ050-291410-
WALLOWA COUNTY

CITY            SKY/WX      TMP DP  RH  WIND    PRES   REMARKS
#ENTERPRISE AP  N/A         46  37  71  CALM    29.99S
#ENTERPRISE HS  N/A         42  39  89  CALM    30.06S
#IMNAHA SCHOOL  N/A         54  42  64  CALM    29.98R
#IMNAHA 10S     N/A         54  38  55  SW5     30.02S
#JOSEPH 3N      N/A         41  36  82  NE1     30.06S
#JOSEPH 3W      N/A         53  35  50  W2      29.91S
#LOSTINE        N/A         41  38  89  CALM    29.72S
#MT HOWARD 8000 N/A         54  20  26  CALM    30.26S
#PROMISE 1S     N/A         49  40  71  CALM    30.01S
#SHEEP RDG 7000 N/A         56  26  31  CALM    29.85R
#WALLOWA SCHOOL N/A         41  39  93  CALM    30.84R



$$



USA.gov is the U.S. government's official web portal to all federal, state and local government web resources and services.